SWA475 KFLL-TJSJ

Flight info

Callsign SWA475
Flight time 2h 11m
Altitude 34000
Route SNAPR2 SUMAC DCT OREDE BR1L GTK A555 IDAHO RTE6 BEANO BEANO3
Aircraft B738/M-SDE2E3FGHIRWXY/LB1

Departure

Time 2026-05-03 22:11
Airport Fort Lauderdale Hollywood International Airport (KFLL)

Arrival

Time 2026-05-04 00:22
Airport Luis Munoz Marin International Airport (TJSJ)
Time Latitude Longitude Altitude Speed Heading
2026-05-03 20:42 26.07333 -80.13791 17 ft 0 kts 246°
2026-05-03 20:56 26.07338 -80.13776 16 ft 3 kts 246°
2026-05-03 20:57 26.07348 -80.13754 16 ft 4 kts 229°
2026-05-03 20:57 26.07366 -80.13740 15 ft 2 kts 205°
2026-05-03 20:57 26.07389 -80.13732 17 ft 4 kts 177°
2026-05-03 20:57 26.07414 -80.13735 16 ft 3 kts 179°
2026-05-03 20:58 26.07416 -80.13735 14 ft 2 kts 180°
2026-05-03 21:02 26.07409 -80.13735 14 ft 3 kts 180°
2026-05-03 21:02 26.07393 -80.13715 15 ft 5 kts 87°
2026-05-03 21:02 26.07414 -80.13695 15 ft 0 kts 14°
2026-05-03 21:03 26.07415 -80.13695 14 ft 0 kts
2026-05-03 21:14 26.07422 -80.13694 14 ft 3 kts
2026-05-03 21:14 26.07459 -80.13707 13 ft 7 kts 322°
2026-05-03 21:14 26.07469 -80.13770 12 ft 9 kts 271°
2026-05-03 21:15 26.07471 -80.13845 12 ft 10 kts 274°
2026-05-03 21:15 26.07483 -80.13920 13 ft 10 kts 280°
2026-05-03 21:15 26.07486 -80.13993 15 ft 9 kts 270°
2026-05-03 21:15 26.07486 -80.14064 16 ft 9 kts 270°
2026-05-03 21:16 26.07486 -80.14134 17 ft 9 kts 270°
2026-05-03 21:16 26.07487 -80.14201 17 ft 9 kts 270°
2026-05-03 21:16 26.07487 -80.14272 17 ft 9 kts 270°
2026-05-03 21:16 26.07488 -80.14342 17 ft 9 kts 270°
2026-05-03 21:17 26.07488 -80.14410 18 ft 9 kts 270°
2026-05-03 21:17 26.07488 -80.14454 18 ft 9 kts 270°
2026-05-03 21:17 26.07489 -80.14504 19 ft 4 kts 270°
2026-05-03 21:17 26.07488 -80.14542 19 ft 6 kts 270°
2026-05-03 21:18 26.07488 -80.14598 19 ft 8 kts 269°
2026-05-03 21:18 26.07488 -80.14675 18 ft 12 kts 270°
2026-05-03 21:18 26.07489 -80.14750 16 ft 6 kts 270°
2026-05-03 21:18 26.07489 -80.14813 15 ft 10 kts 270°
2026-05-03 21:19 26.07489 -80.14907 14 ft 13 kts 270°
2026-05-03 21:19 26.07489 -80.14948 14 ft 1 kts 270°
2026-05-03 21:27 26.07489 -80.14954 14 ft 4 kts 270°
2026-05-03 21:27 26.07490 -80.15034 14 ft 12 kts 270°
2026-05-03 21:27 26.07490 -80.15103 13 ft 15 kts 271°
2026-05-03 21:27 26.07491 -80.15228 11 ft 18 kts 270°
2026-05-03 21:28 26.07491 -80.15375 10 ft 19 kts 270°
2026-05-03 21:28 26.07492 -80.15521 12 ft 19 kts 270°
2026-05-03 21:28 26.07493 -80.15660 13 ft 18 kts 270°
2026-05-03 21:28 26.07494 -80.15796 13 ft 17 kts 271°
2026-05-03 21:29 26.07495 -80.15928 15 ft 17 kts 270°
2026-05-03 21:29 26.07495 -80.16003 17 ft 6 kts 270°
2026-05-03 21:29 26.07496 -80.16046 18 ft 6 kts 270°
2026-05-03 21:29 26.07496 -80.16064 18 ft 0 kts 270°
2026-05-03 21:31 26.07496 -80.16069 19 ft 3 kts 270°
2026-05-03 21:31 26.07496 -80.16082 19 ft 0 kts 270°
2026-05-03 21:32 26.07496 -80.16087 19 ft 2 kts 270°
2026-05-03 21:32 26.07496 -80.16123 19 ft 7 kts 270°
2026-05-03 21:32 26.07496 -80.16126 19 ft 0 kts 270°
2026-05-03 21:33 26.07496 -80.16145 19 ft 6 kts 270°
2026-05-03 21:33 26.07497 -80.16208 18 ft 0 kts 271°
2026-05-03 21:33 26.07497 -80.16210 18 ft 2 kts 271°
2026-05-03 21:34 26.07497 -80.16226 18 ft 0 kts 271°
2026-05-03 21:34 26.07497 -80.16229 18 ft 2 kts 270°
2026-05-03 21:34 26.07497 -80.16254 18 ft 5 kts 269°
2026-05-03 21:34 26.07497 -80.16263 18 ft 0 kts 270°
2026-05-03 21:35 26.07497 -80.16264 18 ft 0 kts 270°
2026-05-03 21:39 26.07497 -80.16282 18 ft 0 kts 270°
2026-05-03 21:39 26.07497 -80.16284 18 ft 1 kts 270°
2026-05-03 21:39 26.07497 -80.16295 18 ft 2 kts 270°
2026-05-03 21:40 26.07497 -80.16298 17 ft 0 kts 271°
2026-05-03 21:40 26.07497 -80.16301 17 ft 0 kts 271°
2026-05-03 21:40 26.07497 -80.16303 17 ft 0 kts 271°
2026-05-03 21:40 26.07497 -80.16306 17 ft 0 kts 271°
2026-05-03 21:44 26.07497 -80.16310 17 ft 2 kts 271°
2026-05-03 21:44 26.07497 -80.16338 17 ft 5 kts 270°
2026-05-03 21:44 26.07497 -80.16354 17 ft 0 kts 270°
2026-05-03 21:46 26.07497 -80.16358 17 ft 2 kts 270°
2026-05-03 21:46 26.07497 -80.16370 17 ft 0 kts 270°
2026-05-03 21:46 26.07497 -80.16387 17 ft 4 kts 270°
2026-05-03 21:47 26.07498 -80.16427 17 ft 6 kts 270°
2026-05-03 21:47 26.07498 -80.16452 18 ft 0 kts 270°
2026-05-03 21:47 26.07498 -80.16455 18 ft 2 kts 270°
2026-05-03 21:47 26.07498 -80.16488 18 ft 5 kts 270°
2026-05-03 21:48 26.07498 -80.16521 18 ft 2 kts 270°
2026-05-03 21:48 26.07498 -80.16522 18 ft 0 kts 270°
2026-05-03 21:48 26.07498 -80.16527 18 ft 2 kts 270°
2026-05-03 21:49 26.07498 -80.16548 18 ft 4 kts 270°
2026-05-03 21:49 26.07498 -80.16575 17 ft 2 kts 272°
2026-05-03 21:53 26.07498 -80.16576 17 ft 1 kts 272°
2026-05-03 21:54 26.07505 -80.16613 17 ft 6 kts 294°
2026-05-03 21:54 26.07520 -80.16633 16 ft 0 kts 322°
2026-05-03 22:05 26.07536 -80.16640 16 ft 6 kts 346°
2026-05-03 22:05 26.07584 -80.16643 15 ft 0 kts
2026-05-03 22:08 26.07587 -80.16643 15 ft 2 kts
2026-05-03 22:08 26.07627 -80.16642 15 ft 8 kts
2026-05-03 22:09 26.07685 -80.16623 16 ft 10 kts 54°
2026-05-03 22:09 26.07694 -80.16569 15 ft 0 kts 89°
2026-05-03 22:10 26.07695 -80.16500 17 ft 34 kts 90°
2026-05-03 22:11 26.07692 -80.15923 16 ft 113 kts 90°
2026-05-03 22:11 26.07687 -80.14784 41 ft 176 kts 91°
2026-05-03 22:11 26.07674 -80.13403 866 ft 176 kts 85°
2026-05-03 22:11 26.07724 -80.12065 1900 ft 174 kts 85°
2026-05-03 22:12 26.07804 -80.10646 2343 ft 198 kts 86°
2026-05-03 22:12 26.07792 -80.09046 2725 ft 211 kts 94°
2026-05-03 22:12 26.07707 -80.07428 3379 ft 208 kts 90°
2026-05-03 22:12 26.07708 -80.06357 3730 ft 213 kts 89°
2026-05-03 22:13 26.07712 -80.04657 4085 ft 225 kts 89°
2026-05-03 22:13 26.07710 -80.02908 4629 ft 229 kts 89°
2026-05-03 22:13 26.07727 -80.01029 4715 ft 262 kts 88°
2026-05-03 22:13 26.07811 -79.98835 4602 ft 300 kts 86°
2026-05-03 22:14 26.08008 -79.96539 5578 ft 288 kts 85°
2026-05-03 22:14 26.07968 -79.94447 7102 ft 257 kts 98°
2026-05-03 22:14 26.07804 -79.92487 7907 ft 259 kts 96°
2026-05-03 22:14 26.07710 -79.90368 7916 ft 291 kts 92°
2026-05-03 22:15 26.07706 -79.88051 8287 ft 304 kts 91°
2026-05-03 22:15 26.07712 -79.85718 9128 ft 298 kts 92°
2026-05-03 22:15 26.07668 -79.83436 10009 ft 293 kts 94°
2026-05-03 22:15 26.07452 -79.81172 10512 ft 301 kts 105°
2026-05-03 22:16 26.06843 -79.78872 10710 ft 319 kts 112°
2026-05-03 22:16 26.06177 -79.76489 11297 ft 323 kts 107°
2026-05-03 22:16 26.05663 -79.74104 12325 ft 310 kts 106°
2026-05-03 22:16 26.05164 -79.71778 13025 ft 313 kts 107°
2026-05-03 22:17 26.04617 -79.69359 13136 ft 335 kts 107°
2026-05-03 22:17 26.04022 -79.66780 13386 ft 349 kts 107°
2026-05-03 22:17 26.03430 -79.64201 14368 ft 335 kts 107°
2026-05-03 22:17 26.02883 -79.61762 15527 ft 319 kts 107°
2026-05-03 22:18 26.02345 -79.59336 15863 ft 332 kts 107°
2026-05-03 22:18 26.01749 -79.56726 15614 ft 364 kts 107°
2026-05-03 22:18 26.01118 -79.53938 15784 ft 380 kts 107°
2026-05-03 22:18 26.00464 -79.51069 15892 ft 396 kts 107°
2026-05-03 22:19 25.99768 -79.48048 16015 ft 411 kts 107°
2026-05-03 22:19 25.99032 -79.44894 16364 ft 418 kts 107°
2026-05-03 22:19 25.98304 -79.41798 16828 ft 422 kts 107°
2026-05-03 22:19 25.97550 -79.38628 17284 ft 425 kts 108°
2026-05-03 22:20 25.96604 -79.35513 17745 ft 427 kts 113°
2026-05-03 22:20 25.95536 -79.32422 18167 ft 430 kts 114°
2026-05-03 22:20 25.94427 -79.29323 18575 ft 433 kts 115°
2026-05-03 22:20 25.93307 -79.26204 19004 ft 436 kts 115°
2026-05-03 22:21 25.92186 -79.23062 19454 ft 439 kts 115°
2026-05-03 22:21 25.91066 -79.19894 19887 ft 442 kts 114°
2026-05-03 22:21 25.89948 -79.16709 20266 ft 445 kts 114°
2026-05-03 22:21 25.88823 -79.13492 20637 ft 448 kts 114°
2026-05-03 22:22 25.87694 -79.10259 21026 ft 450 kts 114°
2026-05-03 22:22 25.86560 -79.07012 21414 ft 453 kts 115°
2026-05-03 22:22 25.85417 -79.03741 21771 ft 455 kts 115°
2026-05-03 22:22 25.84267 -79.00455 22100 ft 458 kts 115°
2026-05-03 22:23 25.83108 -78.97147 22428 ft 461 kts 115°
2026-05-03 22:23 25.81944 -78.93825 22771 ft 463 kts 115°
2026-05-03 22:23 25.80772 -78.90485 23084 ft 466 kts 115°
2026-05-03 22:23 25.79594 -78.87129 23378 ft 468 kts 115°
2026-05-03 22:24 25.78408 -78.83755 23668 ft 471 kts 115°
2026-05-03 22:24 25.77214 -78.80361 23968 ft 473 kts 115°
2026-05-03 22:24 25.76015 -78.76956 24246 ft 475 kts 115°
2026-05-03 22:24 25.74805 -78.73534 24532 ft 477 kts 116°
2026-05-03 22:25 25.73383 -78.70233 24802 ft 473 kts 126°
2026-05-03 22:25 25.71586 -78.67189 25096 ft 471 kts 130°
2026-05-03 22:25 25.69709 -78.64214 25368 ft 472 kts 130°
2026-05-03 22:25 25.67815 -78.61231 25632 ft 474 kts 130°
2026-05-03 22:26 25.65929 -78.58225 25924 ft 475 kts 130°
2026-05-03 22:26 25.64057 -78.55200 26182 ft 477 kts 129°
2026-05-03 22:26 25.62190 -78.52159 26441 ft 478 kts 129°
2026-05-03 22:26 25.60315 -78.49101 26680 ft 480 kts 130°
2026-05-03 22:27 25.58503 -78.45979 26894 ft 486 kts 124°
2026-05-03 22:27 25.57044 -78.42575 27133 ft 494 kts 115°
2026-05-03 22:27 25.56022 -78.38925 27406 ft 497 kts 110°
2026-05-03 22:27 25.55107 -78.35229 27626 ft 499 kts 109°
2026-05-03 22:28 25.54205 -78.31504 27822 ft 502 kts 109°
2026-05-03 22:28 25.53309 -78.27822 28035 ft 503 kts 110°
2026-05-03 22:28 25.52383 -78.24085 28234 ft 504 kts 110°
2026-05-03 22:28 25.51441 -78.20345 28444 ft 505 kts 110°
2026-05-03 22:29 25.50485 -78.16592 28663 ft 506 kts 110°
2026-05-03 22:29 25.49522 -78.12845 28848 ft 508 kts 110°
2026-05-03 22:29 25.48552 -78.09079 29026 ft 509 kts 110°
2026-05-03 22:29 25.47580 -78.05312 29239 ft 509 kts 111°
2026-05-03 22:30 25.46609 -78.01550 29519 ft 508 kts 110°
2026-05-03 22:30 25.45639 -77.97792 29848 ft 507 kts 111°
2026-05-03 22:30 25.44677 -77.94062 30185 ft 504 kts 111°
2026-05-03 22:30 25.43712 -77.90331 30456 ft 504 kts 111°
2026-05-03 22:31 25.42745 -77.86602 30645 ft 505 kts 111°
2026-05-03 22:31 25.41778 -77.82875 30866 ft 505 kts 111°
2026-05-03 22:31 25.40807 -77.79136 31107 ft 505 kts 111°
2026-05-03 22:31 25.39838 -77.75405 31373 ft 504 kts 111°
2026-05-03 22:32 25.38868 -77.71673 31586 ft 505 kts 111°
2026-05-03 22:32 25.37898 -77.67949 31790 ft 506 kts 111°
2026-05-03 22:32 25.36924 -77.64212 32025 ft 505 kts 111°
2026-05-03 22:32 25.35950 -77.60477 32234 ft 505 kts 111°
2026-05-03 22:33 25.34973 -77.56740 32445 ft 506 kts 111°
2026-05-03 22:33 25.33999 -77.53014 32693 ft 505 kts 111°
2026-05-03 22:33 25.33024 -77.49290 32928 ft 504 kts 111°
2026-05-03 22:33 25.32046 -77.45558 33122 ft 505 kts 111°
2026-05-03 22:34 25.31069 -77.41833 33326 ft 505 kts 111°
2026-05-03 22:34 25.30089 -77.38105 33473 ft 506 kts 111°
2026-05-03 22:34 25.28938 -77.34442 33642 ft 501 kts 118°
2026-05-03 22:34 25.27369 -77.31048 33880 ft 494 kts 125°
2026-05-03 22:35 25.25648 -77.27763 34116 ft 492 kts 126°
2026-05-03 22:35 25.23909 -77.24520 34342 ft 491 kts 127°
2026-05-03 22:35 25.22160 -77.21273 34528 ft 491 kts 126°
2026-05-03 22:35 25.20420 -77.18024 34665 ft 492 kts 126°
2026-05-03 22:36 25.18689 -77.14764 34847 ft 492 kts 126°
2026-05-03 22:36 25.16987 -77.11537 35000 ft 493 kts 126°
2026-05-03 22:36 25.15263 -77.08255 34984 ft 495 kts 126°
2026-05-03 22:37 25.11821 -77.01683 35004 ft 494 kts 125°
2026-05-03 22:37 25.08392 -76.95134 35001 ft 491 kts 126°
2026-05-03 22:38 25.04979 -76.88636 34993 ft 489 kts 125°
2026-05-03 22:38 25.01573 -76.82165 34993 ft 487 kts 125°
2026-05-03 22:39 24.98177 -76.75721 35009 ft 486 kts 125°
2026-05-03 22:39 24.94777 -76.69281 34996 ft 487 kts 125°
2026-05-03 22:40 24.91364 -76.62824 34994 ft 488 kts 125°
2026-05-03 22:40 24.88095 -76.56649 34987 ft 490 kts 125°
2026-05-03 22:41 24.84661 -76.50168 34995 ft 491 kts 125°
2026-05-03 22:41 24.81209 -76.43663 35005 ft 492 kts 125°
2026-05-03 22:42 24.77750 -76.37151 35009 ft 493 kts 125°
2026-05-03 22:42 24.74282 -76.30633 34997 ft 494 kts 125°
2026-05-03 22:43 24.70810 -76.24116 35000 ft 494 kts 125°
2026-05-03 22:43 24.67338 -76.17605 34998 ft 494 kts 125°
2026-05-03 22:44 24.63860 -76.11093 35001 ft 493 kts 125°
2026-05-03 22:44 24.60388 -76.04606 34998 ft 492 kts 125°
2026-05-03 22:45 24.56922 -75.98135 34991 ft 491 kts 125°
2026-05-03 22:45 24.53462 -75.91679 35003 ft 490 kts 124°
2026-05-03 22:46 24.50003 -75.85238 34996 ft 489 kts 125°
2026-05-03 22:46 24.46544 -75.78810 34998 ft 489 kts 125°
2026-05-03 22:47 24.43090 -75.72397 35002 ft 488 kts 125°
2026-05-03 22:47 24.39634 -75.65989 34996 ft 487 kts 125°
2026-05-03 22:48 24.36183 -75.59600 35002 ft 487 kts 125°
2026-05-03 22:48 24.32729 -75.53212 35013 ft 487 kts 125°
2026-05-03 22:49 24.29299 -75.46879 35000 ft 487 kts 125°
2026-05-03 22:49 24.25836 -75.40494 35016 ft 487 kts 125°
2026-05-03 22:50 24.22370 -75.34107 35016 ft 488 kts 125°
2026-05-03 22:50 24.18893 -75.27709 35007 ft 489 kts 125°
2026-05-03 22:51 24.15404 -75.21300 35006 ft 490 kts 125°
2026-05-03 22:51 24.11913 -75.14895 35012 ft 491 kts 125°
2026-05-03 22:52 24.08410 -75.08477 35003 ft 491 kts 125°
2026-05-03 22:52 24.04906 -75.02062 35011 ft 491 kts 125°
2026-05-03 22:53 24.01397 -74.95645 35005 ft 491 kts 125°
2026-05-03 22:53 23.97892 -74.89247 35007 ft 491 kts 124°
2026-05-03 22:54 23.94384 -74.82852 35008 ft 490 kts 124°
2026-05-03 22:54 23.90882 -74.76477 35005 ft 489 kts 124°
2026-05-03 22:55 23.87380 -74.70108 35006 ft 488 kts 124°
2026-05-03 22:55 23.83885 -74.63762 35007 ft 488 kts 124°
2026-05-03 22:56 23.80387 -74.57420 35010 ft 487 kts 124°
2026-05-03 22:56 23.76892 -74.51089 35004 ft 486 kts 124°
2026-05-03 22:57 23.73403 -74.44777 35012 ft 485 kts 124°
2026-05-03 22:57 23.69914 -74.38471 35006 ft 485 kts 125°
2026-05-03 22:58 23.66423 -74.32175 35005 ft 485 kts 125°
2026-05-03 22:58 23.62930 -74.25882 35004 ft 485 kts 125°
2026-05-03 22:59 23.59430 -74.19583 35011 ft 486 kts 125°
2026-05-03 22:59 23.56517 -74.14345 35003 ft 486 kts 125°
2026-05-03 23:00 23.53005 -74.08040 35007 ft 487 kts 125°
2026-05-03 23:00 23.49488 -74.01732 35002 ft 488 kts 125°
2026-05-03 23:01 23.45960 -73.95414 35010 ft 489 kts 124°
2026-05-03 23:01 23.42423 -73.89085 34998 ft 489 kts 124°
2026-05-03 23:02 23.38886 -73.82765 34998 ft 489 kts 124°
2026-05-03 23:02 23.35346 -73.76448 34994 ft 489 kts 124°
2026-05-03 23:03 23.31806 -73.70140 34998 ft 488 kts 124°
2026-05-03 23:03 23.28272 -73.63848 35003 ft 487 kts 124°
2026-05-03 23:04 23.24744 -73.57579 34998 ft 486 kts 124°
2026-05-03 23:04 23.21219 -73.51319 34985 ft 485 kts 124°
2026-05-03 23:05 23.17701 -73.45082 34993 ft 483 kts 124°
2026-05-03 23:05 23.14190 -73.38860 34988 ft 482 kts 124°
2026-05-03 23:06 23.10684 -73.32655 34985 ft 482 kts 124°
2026-05-03 23:06 23.07176 -73.26454 34986 ft 481 kts 124°
2026-05-03 23:07 23.03666 -73.20261 34991 ft 481 kts 124°
2026-05-03 23:07 23.00154 -73.14073 34987 ft 482 kts 124°
2026-05-03 23:08 22.96632 -73.07876 34982 ft 483 kts 124°
2026-05-03 23:08 22.93108 -73.01672 34982 ft 483 kts 124°
2026-05-03 23:09 22.89574 -72.95466 34978 ft 484 kts 124°
2026-05-03 23:09 22.86038 -72.89261 34981 ft 484 kts 124°
2026-05-03 23:10 22.82493 -72.83051 34979 ft 484 kts 124°
2026-05-03 23:10 22.78945 -72.76844 34981 ft 484 kts 124°
2026-05-03 23:11 22.75396 -72.70640 34972 ft 484 kts 124°
2026-05-03 23:11 22.71848 -72.64445 34971 ft 484 kts 124°
2026-05-03 23:12 22.68296 -72.58248 34968 ft 484 kts 124°
2026-05-03 23:12 22.64746 -72.52063 34973 ft 483 kts 124°
2026-05-03 23:13 22.61196 -72.45897 34967 ft 482 kts 125°
2026-05-03 23:13 22.56955 -72.40353 34981 ft 477 kts 136°
2026-05-03 23:14 22.52339 -72.35216 34971 ft 476 kts 136°
2026-05-03 23:14 22.47746 -72.30043 34969 ft 476 kts 136°
2026-05-03 23:15 22.43191 -72.24843 34972 ft 476 kts 135°
2026-05-03 23:15 22.38642 -72.19649 34971 ft 476 kts 135°
2026-05-03 23:16 22.34074 -72.14457 34966 ft 476 kts 136°
2026-05-03 23:16 22.29496 -72.09269 34962 ft 477 kts 136°
2026-05-03 23:17 22.24914 -72.04079 34960 ft 478 kts 135°
2026-05-03 23:17 22.20330 -71.98888 34960 ft 478 kts 135°
2026-05-03 23:18 22.15723 -71.93701 34960 ft 478 kts 136°
2026-05-03 23:18 22.11141 -71.88566 34960 ft 478 kts 136°
2026-05-03 23:19 22.06494 -71.83360 34963 ft 479 kts 136°
2026-05-03 23:19 22.01878 -71.78188 34960 ft 479 kts 136°
2026-05-03 23:20 21.97257 -71.73013 34960 ft 479 kts 136°
2026-05-03 23:20 21.92669 -71.67883 34960 ft 479 kts 136°
2026-05-03 23:21 21.88048 -71.62720 34960 ft 479 kts 136°
2026-05-03 23:21 21.83425 -71.57560 34962 ft 479 kts 136°
2026-05-03 23:22 21.76494 -71.49820 34960 ft 478 kts 135°
2026-05-03 23:22 21.71900 -71.44642 34960 ft 478 kts 135°
2026-05-03 23:23 21.67312 -71.39466 34959 ft 478 kts 135°
2026-05-03 23:23 21.62717 -71.34295 34961 ft 478 kts 135°
2026-05-03 23:24 21.58119 -71.29129 34962 ft 478 kts 135°
2026-05-03 23:24 21.53518 -71.23963 34960 ft 478 kts 135°
2026-05-03 23:25 21.48921 -71.18803 34959 ft 479 kts 135°
2026-05-03 23:25 21.44339 -71.13615 34958 ft 480 kts 132°
2026-05-03 23:26 21.40516 -71.07734 34957 ft 481 kts 123°
2026-05-03 23:26 21.36946 -71.01668 34949 ft 481 kts 123°
2026-05-03 23:27 21.33348 -70.95627 34949 ft 481 kts 124°
2026-05-03 23:27 21.29710 -70.89609 34951 ft 481 kts 124°
2026-05-03 23:28 21.26061 -70.83599 34955 ft 481 kts 124°
2026-05-03 23:28 21.22438 -70.77637 34952 ft 481 kts 124°
2026-05-03 23:29 21.18790 -70.71634 34947 ft 481 kts 124°
2026-05-03 23:29 21.15143 -70.65638 34951 ft 480 kts 124°
2026-05-03 23:30 21.11490 -70.59648 34953 ft 480 kts 124°
2026-05-03 23:30 21.07836 -70.53666 34951 ft 480 kts 124°
2026-05-03 23:31 21.04183 -70.47688 34961 ft 479 kts 124°
2026-05-03 23:31 21.00534 -70.41721 34960 ft 479 kts 124°
2026-05-03 23:32 20.96889 -70.35764 34959 ft 478 kts 124°
2026-05-03 23:32 20.93241 -70.29813 34996 ft 479 kts 124°
2026-05-03 23:33 20.89586 -70.23855 34982 ft 479 kts 124°
2026-05-03 23:33 20.85937 -70.17914 34986 ft 477 kts 124°
2026-05-03 23:34 20.82297 -70.11996 35000 ft 476 kts 124°
2026-05-03 23:34 20.78664 -70.06093 34992 ft 475 kts 124°
2026-05-03 23:35 20.75037 -70.00201 34986 ft 474 kts 124°
2026-05-03 23:35 20.71411 -69.94317 34991 ft 474 kts 124°
2026-05-03 23:36 20.67810 -69.88482 34987 ft 474 kts 124°
2026-05-03 23:36 20.64178 -69.82600 34987 ft 474 kts 124°
2026-05-03 23:37 20.60544 -69.76721 34999 ft 475 kts 124°
2026-05-03 23:37 20.56896 -69.70847 34987 ft 475 kts 124°
2026-05-03 23:38 20.53221 -69.64991 34980 ft 476 kts 124°
2026-05-03 23:38 20.49535 -69.59118 34984 ft 476 kts 124°
2026-05-03 23:39 20.45849 -69.53254 35000 ft 476 kts 124°
2026-05-03 23:39 20.42161 -69.47392 35006 ft 476 kts 124°
2026-05-03 23:40 20.38471 -69.41532 35005 ft 476 kts 124°
2026-05-03 23:40 20.34777 -69.35672 35020 ft 476 kts 124°
2026-05-03 23:41 20.31082 -69.29811 35021 ft 476 kts 124°
2026-05-03 23:41 20.27389 -69.23955 35013 ft 476 kts 124°
2026-05-03 23:42 20.23698 -69.18106 35009 ft 476 kts 124°
2026-05-03 23:42 20.20003 -69.12260 35013 ft 476 kts 124°
2026-05-03 23:43 20.16333 -69.06458 35004 ft 476 kts 124°
2026-05-03 23:43 20.12643 -69.00628 35010 ft 475 kts 124°
2026-05-03 23:44 20.08953 -68.94804 35005 ft 474 kts 124°
2026-05-03 23:44 20.05266 -68.88991 35008 ft 474 kts 124°
2026-05-03 23:45 20.02201 -68.84164 35010 ft 474 kts 124°
2026-05-03 23:45 19.98524 -68.78357 35007 ft 473 kts 124°
2026-05-03 23:46 19.94875 -68.72545 35005 ft 473 kts 124°
2026-05-03 23:46 19.91224 -68.66732 35011 ft 473 kts 124°
2026-05-03 23:47 19.87577 -68.60928 35011 ft 472 kts 124°
2026-05-03 23:47 19.83958 -68.55177 34635 ft 462 kts 124°
2026-05-03 23:48 19.82171 -68.52341 34032 ft 463 kts 124°
2026-05-03 23:48 19.80380 -68.49502 33382 ft 464 kts 124°
2026-05-03 23:48 19.78553 -68.46606 32699 ft 466 kts 124°
2026-05-03 23:48 19.76769 -68.43780 32018 ft 468 kts 124°
2026-05-03 23:49 19.74958 -68.40911 31325 ft 469 kts 124°
2026-05-03 23:49 19.73147 -68.38046 30858 ft 464 kts 124°
2026-05-03 23:49 19.71365 -68.35225 30495 ft 458 kts 124°
2026-05-03 23:49 19.69599 -68.32432 30061 ft 453 kts 124°
2026-05-03 23:50 19.67851 -68.29668 29530 ft 450 kts 124°
2026-05-03 23:50 19.66107 -68.26912 28880 ft 450 kts 124°
2026-05-03 23:50 19.64354 -68.24144 28132 ft 452 kts 124°
2026-05-03 23:50 19.62596 -68.21369 27339 ft 455 kts 124°
2026-05-03 23:51 19.60825 -68.18573 26639 ft 455 kts 124°
2026-05-03 23:51 19.59075 -68.15812 26273 ft 448 kts 124°
2026-05-03 23:51 19.57352 -68.13095 25976 ft 439 kts 124°
2026-05-03 23:51 19.55672 -68.10448 25756 ft 428 kts 124°
2026-05-03 23:52 19.54016 -68.07841 25315 ft 424 kts 124°
2026-05-03 23:52 19.52371 -68.05251 24761 ft 423 kts 124°
2026-05-03 23:52 19.50728 -68.02666 24212 ft 423 kts 124°
2026-05-03 23:52 19.49090 -68.00089 23753 ft 419 kts 124°
2026-05-03 23:53 19.47476 -67.97551 23534 ft 410 kts 124°
2026-05-03 23:53 19.45904 -67.95081 23405 ft 399 kts 124°
2026-05-03 23:53 19.44369 -67.92671 23209 ft 391 kts 124°
2026-05-03 23:53 19.42850 -67.90293 22804 ft 389 kts 124°
2026-05-03 23:54 19.41342 -67.87926 22380 ft 387 kts 124°
2026-05-03 23:54 19.39826 -67.85544 21646 ft 394 kts 124°
2026-05-03 23:54 19.38277 -67.83109 20778 ft 404 kts 124°
2026-05-03 23:54 19.36684 -67.80611 19922 ft 413 kts 125°
2026-05-03 23:55 19.35063 -67.78069 19119 ft 419 kts 125°
2026-05-03 23:55 19.33437 -67.75518 18685 ft 415 kts 125°
2026-05-03 23:55 19.31845 -67.73022 18384 ft 402 kts 126°
2026-05-03 23:55 19.30317 -67.70626 18247 ft 382 kts 126°
2026-05-03 23:56 19.28866 -67.68353 18128 ft 364 kts 126°
2026-05-03 23:56 19.27476 -67.66179 18003 ft 348 kts 126°
2026-05-03 23:56 19.26150 -67.64129 17680 ft 336 kts 129°
2026-05-03 23:56 19.24607 -67.62256 16970 ft 332 kts 136°
2026-05-03 23:57 19.23029 -67.60596 16432 ft 327 kts 137°
2026-05-03 23:57 19.21564 -67.58846 16227 ft 309 kts 135°
2026-05-03 23:57 19.20101 -67.57225 15760 ft 301 kts 136°
2026-05-03 23:57 19.18616 -67.55644 15042 ft 307 kts 136°
2026-05-03 23:58 19.17186 -67.53959 14424 ft 310 kts 121°
2026-05-03 23:58 19.16548 -67.51800 13950 ft 308 kts 97°
2026-05-03 23:58 19.16390 -67.49562 13546 ft 303 kts 95°
2026-05-03 23:58 19.16166 -67.47355 13062 ft 301 kts 99°
2026-05-03 23:59 19.15748 -67.45204 12609 ft 297 kts 105°
2026-05-03 23:59 19.15160 -67.43122 12159 ft 294 kts 109°
2026-05-03 23:59 19.14451 -67.41106 11706 ft 290 kts 112°
2026-05-03 23:59 19.13669 -67.39150 11272 ft 287 kts 114°
2026-05-04 00:00 19.12841 -67.37238 11050 ft 287 kts 115°
2026-05-04 00:00 19.11978 -67.35335 11017 ft 287 kts 116°
2026-05-04 00:00 19.11099 -67.33450 11003 ft 284 kts 117°
2026-05-04 00:00 19.10211 -67.31581 10999 ft 285 kts 117°
2026-05-04 00:01 19.09312 -67.29712 11000 ft 286 kts 117°
2026-05-04 00:01 19.08407 -67.27842 10996 ft 286 kts 117°
2026-05-04 00:01 19.07499 -67.25977 10999 ft 285 kts 117°
2026-05-04 00:01 19.06589 -67.24113 10999 ft 285 kts 117°
2026-05-04 00:02 19.05680 -67.22252 10998 ft 285 kts 117°
2026-05-04 00:02 19.04770 -67.20393 11001 ft 285 kts 117°
2026-05-04 00:02 19.03862 -67.18537 11004 ft 284 kts 117°
2026-05-04 00:02 19.02952 -67.16681 11007 ft 284 kts 117°
2026-05-04 00:03 19.02042 -67.14825 11010 ft 284 kts 117°
2026-05-04 00:03 19.01131 -67.12969 11010 ft 284 kts 117°
2026-05-04 00:03 19.00221 -67.11115 11010 ft 285 kts 117°
2026-05-04 00:03 18.99308 -67.09256 11010 ft 285 kts 117°
2026-05-04 00:04 18.98396 -67.07397 11010 ft 285 kts 117°
2026-05-04 00:04 18.97481 -67.05534 11012 ft 286 kts 117°
2026-05-04 00:04 18.96578 -67.03698 11018 ft 286 kts 117°
2026-05-04 00:04 18.95649 -67.01809 11020 ft 286 kts 117°
2026-05-04 00:05 18.94745 -66.99971 11019 ft 286 kts 117°
2026-05-04 00:05 18.93826 -66.98105 11019 ft 286 kts 117°
2026-05-04 00:05 18.92907 -66.96239 11017 ft 287 kts 117°
2026-05-04 00:05 18.91987 -66.94372 11013 ft 287 kts 117°
2026-05-04 00:06 18.91066 -66.92504 11009 ft 287 kts 117°
2026-05-04 00:06 18.90147 -66.90639 11007 ft 286 kts 117°
2026-05-04 00:06 18.89229 -66.88778 11008 ft 286 kts 117°
2026-05-04 00:06 18.88309 -66.86910 11010 ft 286 kts 117°
2026-05-04 00:07 18.87390 -66.85048 11011 ft 286 kts 117°
2026-05-04 00:07 18.86472 -66.83187 11010 ft 286 kts 117°
2026-05-04 00:07 18.85552 -66.81321 11008 ft 286 kts 117°
2026-05-04 00:07 18.84631 -66.79457 11010 ft 287 kts 117°
2026-05-04 00:08 18.83710 -66.77591 11015 ft 286 kts 117°
2026-05-04 00:08 18.82790 -66.75729 11012 ft 286 kts 117°
2026-05-04 00:08 18.81869 -66.73866 11011 ft 286 kts 117°
2026-05-04 00:08 18.80947 -66.72002 11011 ft 286 kts 117°
2026-05-04 00:09 18.80027 -66.70141 11013 ft 286 kts 117°
2026-05-04 00:09 18.79106 -66.68277 11011 ft 286 kts 117°
2026-05-04 00:09 18.78209 -66.66459 10986 ft 272 kts 117°
2026-05-04 00:09 18.77358 -66.64739 10993 ft 257 kts 117°
2026-05-04 00:10 18.76545 -66.63096 11001 ft 252 kts 117°
2026-05-04 00:10 18.75681 -66.61488 11004 ft 251 kts 124°
2026-05-04 00:10 18.74626 -66.60031 10993 ft 248 kts 129°
2026-05-04 00:10 18.73535 -66.58643 10759 ft 244 kts 129°
2026-05-04 00:11 18.72446 -66.57275 10340 ft 244 kts 129°
2026-05-04 00:11 18.71363 -66.55907 9934 ft 243 kts 129°
2026-05-04 00:11 18.70289 -66.54543 9534 ft 241 kts 129°
2026-05-04 00:11 18.69225 -66.53185 9170 ft 238 kts 129°
2026-05-04 00:12 18.68177 -66.51845 8814 ft 236 kts 128°
2026-05-04 00:12 18.67139 -66.50514 8437 ft 234 kts 128°
2026-05-04 00:12 18.66123 -66.49210 8048 ft 232 kts 128°
2026-05-04 00:12 18.65101 -66.47896 7657 ft 232 kts 128°
2026-05-04 00:13 18.64085 -66.46589 7314 ft 229 kts 128°
2026-05-04 00:13 18.63067 -66.45280 6930 ft 228 kts 128°
2026-05-04 00:13 18.62080 -66.44010 6570 ft 225 kts 128°
2026-05-04 00:13 18.61088 -66.42736 6168 ft 224 kts 128°
2026-05-04 00:14 18.60105 -66.41465 5756 ft 224 kts 129°
2026-05-04 00:14 18.59121 -66.40204 5453 ft 220 kts 128°
2026-05-04 00:14 18.58153 -66.38953 5119 ft 219 kts 128°
2026-05-04 00:14 18.57198 -66.37709 4737 ft 218 kts 128°
2026-05-04 00:15 18.56237 -66.36471 4408 ft 216 kts 128°
2026-05-04 00:15 18.55290 -66.35254 4065 ft 215 kts 128°
2026-05-04 00:15 18.54347 -66.34040 3703 ft 213 kts 128°
2026-05-04 00:15 18.53409 -66.32835 3354 ft 211 kts 128°
2026-05-04 00:16 18.52480 -66.31641 2987 ft 210 kts 128°
2026-05-04 00:16 18.51559 -66.30456 2622 ft 209 kts 128°
2026-05-04 00:16 18.50654 -66.29293 2497 ft 202 kts 128°
2026-05-04 00:16 18.49757 -66.28138 2489 ft 206 kts 128°
2026-05-04 00:17 18.48837 -66.26949 2488 ft 212 kts 128°
2026-05-04 00:17 18.47906 -66.25753 2476 ft 211 kts 128°
2026-05-04 00:17 18.46978 -66.24563 2469 ft 209 kts 129°
2026-05-04 00:17 18.46055 -66.23380 2470 ft 209 kts 128°
2026-05-04 00:18 18.45148 -66.22214 2468 ft 208 kts 128°
2026-05-04 00:18 18.44234 -66.21038 2467 ft 207 kts 128°
2026-05-04 00:18 18.43646 -66.19685 2478 ft 206 kts 97°
2026-05-04 00:18 18.43498 -66.18179 2487 ft 208 kts 97°
2026-05-04 00:19 18.43400 -66.16638 2486 ft 207 kts 93°
2026-05-04 00:19 18.43381 -66.15184 2442 ft 195 kts 91°
2026-05-04 00:19 18.43380 -66.13788 2244 ft 188 kts 91°
2026-05-04 00:19 18.43378 -66.12434 2018 ft 182 kts 91°
2026-05-04 00:20 18.43375 -66.11115 1771 ft 177 kts 92°
2026-05-04 00:20 18.43371 -66.09832 1534 ft 173 kts 92°
2026-05-04 00:20 18.43368 -66.08590 1307 ft 166 kts 92°
2026-05-04 00:20 18.43366 -66.07379 1115 ft 164 kts 92°
2026-05-04 00:21 18.43363 -66.06193 882 ft 160 kts 92°
2026-05-04 00:21 18.43359 -66.05035 679 ft 154 kts 90°
2026-05-04 00:21 18.43359 -66.03918 461 ft 152 kts 90°
2026-05-04 00:21 18.43357 -66.02805 271 ft 152 kts 90°
2026-05-04 00:22 18.43354 -66.01687 64 ft 153 kts 90°
2026-05-04 00:22 18.43361 -66.00591 -35 ft 141 kts 90°
2026-05-04 00:22 18.43356 -65.99685 -36 ft 102 kts 90°
2026-05-04 00:22 18.43354 -65.99257 -34 ft 33 kts 90°
2026-05-04 00:23 18.43376 -65.99093 -34 ft 19 kts 50°
2026-05-04 00:23 18.43462 -65.99139 -31 ft 18 kts 270°
2026-05-04 00:23 18.43463 -65.99269 -31 ft 18 kts 270°
2026-05-04 00:23 18.43463 -65.99394 -29 ft 17 kts 270°
2026-05-04 00:24 18.43464 -65.99517 -29 ft 17 kts 269°
2026-05-04 00:24 18.43465 -65.99656 -30 ft 21 kts 271°
2026-05-04 00:24 18.43464 -65.99824 -31 ft 24 kts 272°
2026-05-04 00:24 18.43520 -65.99917 -25 ft 16 kts 349°
2026-05-04 00:25 18.43618 -65.99971 -26 ft 16 kts 335°
2026-05-04 00:25 18.43721 -65.99999 -26 ft 15 kts 354°
2026-05-04 00:25 18.43797 -66.00053 -27 ft 13 kts 278°
2026-05-04 00:25 18.43770 -66.00142 -27 ft 11 kts 249°
2026-05-04 00:26 18.43760 -66.00195 -27 ft 7 kts 269°
2026-05-04 00:26 18.43728 -66.00213 -27 ft 6 kts 185°
2026-05-04 00:26 18.43701 -66.00214 -27 ft 0 kts 181°